www.pogodaiklimat.ru

Погода и климат >> Архив погоды >> Коморские Острова >> Dzaoudzi


ПОГОДА в Dzaoudzi

  • Прогноз погоды в Dzaoudzi
  • Монитор погоды в Dzaoudzi
  • Климат города

АРХИВ ПОГОДЫ в Dzaoudzi

Время (UTC), дата Ветер
(напр.,м/с)
 
Видим.   Явления Облачность Т
(С)
Тd
(С)
f
(%)
Тe
(С)
Тes
(С)
Комфортность P
(гПа)
Po
(гПа)
Тmin
(С)
Tmax
(С)
R
(мм)
R24
(мм)
S
(см)
00 10.08 ЮВ 4
{7}
20 км 10/0 2000 м
[]
+25.2 +20.2 74 +31 +31 очень
душно
1016.3 1016.0
03 10.08 ЮВ 3
{4}
20 км 4/3 660 м
[Cu Sc Ac trans]
+25.0 +21.3 80 +32 +32 очень
душно
1016.4 1016.0
06 10.08 ЮВ 5
{7}
20 км 4/3 700 м
[Cu Sc Ac trans]
+27.7 +20.8 66 +35 +38 очень
душно
1018.2 1018.0 +23.3
09 10.08 ЮВ 6
{9}
20 км 3/3 700 м
[Cu med, cong]
+28.8 +20.0 59 +35 +40 очень
душно
1017.4 1017.0
12 10.08 Ю 5
{7}
20 км 3/3 900 м
[Cu med, cong]
+28.0 +20.0 62 +34 +37 очень
душно
1016.1 1016.0
15 10.08 ЮВ 4
{6}
20 км 4/3 800 м
[Cu hum Ci fib]
+25.4 +19.5 70 +31 +31 очень
душно
1016.9 1017.0
18 10.08 Ю 1
{2}
20 км н/о +22.6 +19.0 80 +28 +28 душно 1018.1 1018.0 +29.0
21 10.08 ЮЗ 3
{5}
20 км н/о +23.5 +20.0 81 +29 +29 душно 1017.8 1018.0
00 11.08 ЮВ 8
{11}
20 км н/о +25.3 +17.5 62 +29 +29 душно 1016.2 1016.0
03 11.08 ЮВ 8
{12}
20 км 1/1 800 м
[Cu hum]
+24.9 +19.0 70 +30 +30 душно 1016.7 1017.0
06 11.08 ЮВ 8
{13}
20 км 1/1 900 м
[Cu hum]
+26.9 +20.0 66 +33 +34 очень
душно
1018.1 1018.0 +22.4
09 11.08 ЮВ 8
{11}
20 км 1/1 900 м
[Cu hum]
+28.0 +20.6 64 +35 +38 очень
душно
1017.4 1017.0
12 11.08 ЮВ 5
{8}
20 км 1/1 1000 м
[Cu hum]
+28.1 +19.1 58 +33 +37 очень
душно
1016.2 1016.0
15 11.08 ЮВ 5
{7}
20 км 1/1 1000 м
[Cu hum]
+25.6 +19.0 67 +31 +31 очень
душно
1017.3 1017.0
18 11.08 В 2
{6}
20 км н/о +25.2 +18.9 68 +30 +30 душно 1018.2 1018.0 +28.2
21 11.08 ЮЗ 2
{5}
20 км 9/0
[]
+23.1 +19.9 82 +30 +30 очень
душно
1018.0 1018.0
00 12.08 Ю 7
{10}
20 км н/о +25.0 +20.9 78 +31 +31 очень
душно
1017.0 1017.0
03 12.08 Ю 8
{12}
20 км 8/1 800 м
[Cu Sc Ac As Ci fib]
+25.5 +20.3 73 +31 +31 очень
душно
1017.5 1018.0
06 12.08 ЮВ 7 20 км 4/3 800 м
[Cu Sc Ac trans Ci fib]
+28.0 +20.8 65 +35 +36 очень
душно
1018.8 1019.0 +22.7
09 12.08 ЮВ 7
{10}
20 км 3/3 720 м
[Cu med, cong Ci fib]
+28.3 +21.1 65 +36 +40 очень
душно
1017.7 1018.0
12 12.08 ЮВ 5
{7}
20 км 3/3 720 м
[Cu med, cong]
+28.2 +20.7 64 +35 +39 очень
душно
1016.6 1017.0
15 12.08 ЮВ 4
{6}
20 км 4/1 720 м
[Cu hum Ac trans]
+25.8 +20.6 73 +32 +32 очень
душно
1016.9 1017.0
18 12.08 Ю 2
{3}
18 км 8/0
[]
+24.2 +19.9 77 +30 +30 очень
душно
1017.7 1018.0 +28.8
21 12.08 ЮЗ 2
{3}
20 км н/о +23.6 +20.7 84 +29 +29 душно 1017.4 1017.0
00 13.08 ЮВ 7
{10}
19 км 8/0
[]
+25.3 +19.7 71 +31 +31 очень
душно
1016.4 1016.0
03 13.08 ЮВ 7
{11}
20 км 4/4 700 м
[Cu hum]
+24.3 +18.7 71 +29 +29 душно 1016.9 1017.0
06 13.08 ЮВ 7
{10}
20 км 4/4 700 м
[Cu med, cong]
+26.9 +21.2 71 +34 +35 очень
душно
1018.4 1018.0 +23.4
09 13.08 В 5
{8}
20 км 1/1 700 м
[Cu med, cong]
+28.2 +20.5 63 +35 +43 очень
душно
1017.0 1017.0
12 13.08 В 4
{7}
20 км 8/8 800 м
[Cu Sc]
+27.7 +21.3 68 +35 +36 очень
душно
1015.6 1016.0
15 13.08 В 3
{5}
20 км 3/3 720 м
[Cu Sc]
+25.6 +20.2 72 +32 +32 очень
душно
1016.7 1017.0
18 13.08 С 2
{3}
18 км 10/0
[]
+24.4 +20.1 77 +30 +30 очень
душно
1017.8 1018.0 +28.4
21 13.08 СЗ 1
{3}
20 км н/о +22.2 +19.7 86 +28 +28 душно 1017.6 1018.0
00 14.08 С 1
{3}
20 км 9/0
[]
+21.5 +20.0 91 +27 +27 душно 1016.8 1017.0
03 14.08 ЮЗ 4
{6}
20 км 9/4 630 м
[Cu Sc Ac und]
+24.0 +21.3 85 +30 +30 очень
душно
1017.4 1017.0
06 14.08 Ю 5
{8}
20 км 3/3 840 м
[Cu Sc Ac trans]
+27.6 +19.7 62 +33 +37 очень
душно
1018.8 1019.0 +21.2
09 14.08 Ю 4
{6}
20 км 1/1 840 м
[Cu hum]
+28.0 +19.2 59 +34 +44 очень
душно
1017.9 1018.0
12 14.08 Ю 4
{6}
20 км 3/3 840 м
[Cu hum]
+27.6 +19.9 63 +34 +38 очень
душно
1016.2 1016.0
15 14.08 Ю 4
{7}
20 км н/о +25.3 +20.3 74 +31 +31 очень
душно
1016.8 1017.0
18 14.08 Ю 3
{5}
20 км н/о +24.4 +20.1 77 +30 +30 очень
душно
1018.4 1018.0 +28.6
21 14.08 З 3
{4}
20 км н/о +23.1 +20.2 84 +30 +30 очень
душно
1018.0 1018.0
00 15.08 ЮЗ 4
{6}
20 км 9/9 600 м
[]
+23.9 +20.8 83 +30 +30 очень
душно
1016.8 1017.0
03 15.08 Ю 4
{6}
20 км 4/4 700 м
[Cu med, cong]
+24.0 +20.1 79 +30 +30 очень
душно
1017.1 1017.0
06 15.08 Ю 4
{7}
20 км 3/3 900 м
[Cu med, cong]
+27.4 +19.7 63 +33 +37 очень
душно
1017.9 1018.0 +22.6
09 15.08 Ю 5
{7}
20 км 3/3 900 м
[Cu med, cong]
+28.0 +20.0 62 +34 +42 очень
душно
1016.8 1017.0
12 15.08 В 3
{6}
20 км 3/3 900 м
[Cu Sc]
+28.3 +20.8 64 +35 +40 очень
душно
1015.4 1015.0
15 15.08 В 2
{3}
20 км 1/1 900 м
[Cu hum]
+25.6 +20.2 72 +32 +32 очень
душно
1016.1 1016.0
18 15.08 С 2
{2}
20 км н/о +23.1 +20.1 83 +30 +30 очень
душно
1016.9 1017.0 +28.8
21 15.08 СЗ 2
{4}
20 км н/о +21.9 +20.0 89 +28 +28 душно 1016.4 1016.0
00 16.08 В 1
{3}
20 км н/о +21.7 +19.8 89 +27 +27 душно 1014.8 1015.0
03 16.08 З 4
{4}
20 км 3/3 600 м
[Cu Sc]
+22.3 +20.8 91 +29 +29 очень
душно
1015.7 1016.0
06 16.08 ЮЗ 3
{4}
20 км н/о +26.5 +20.8 71 +33 +33 очень
душно
1016.8 1017.0 +21.5
09 16.08 Ю 4
{6}
20 км 4/3 700 м
[Cu Sc Ci fib]
+27.7 +20.8 66 +35 +44 очень
душно
1015.5 1016.0
12 16.08 Ю 3
{7}
20 км 8/8 600 м
[]
+27.2 +20.3 66 +34 +35 очень
душно
1013.7 1014.0
15 16.08 ЮВ 3
{4}
15 км 1/1 700 м
[Cu Sc Ac trans]
+25.2 +19.8 72 +31 +31 очень
душно
1014.6 1015.0
18 16.08 В 3
{4}
20 км н/о +25.1 +20.1 74 +31 +31 очень
душно
1015.9 1016.0 +28.4
21 16.08 СЗ 2
{3}
20 км н/о +22.2 +19.9 87 +28 +28 душно 1015.3 1015.0

 

Местоположение метеостанции Dzaoudzi (Коморские Острова): широта -12.80 долгота 45.28 высота над уровнем моря 7 м.

В архиве по умолчанию представлена погода в Dzaoudzi за последнюю неделю. Архивные данные за месяц целиком и за предыдущие месяцы, начиная с января 2011 года, Вы можете получить, выбрав интересующий диапазон дат из раскрывающегося списка и нажав кнопку "Ввод!".

Внимание! Время в таблицах - всемирное. Для получения местного времени необходимо прибавить поправку, которая в Dzaoudzi равна 3 ч.

Смотрите также архив погоды в соседних городах и на ближайших метеорологических станциях:

Погода в Iles Glorieuses (Реюньон) (254 км)
Погода в Moroni (Коморские Острова) (260 км)
Погода в Fascene (Мадагаскар) (334 км)
Погода в Mahajanga (Мадагаскар) (338 км)
Погода в Antsohihy (Мадагаскар) (372 км)
Погода в Antsiranana (Мадагаскар) (439 км)
Погода в Besalampy (Мадагаскар) (448 км)
Погода в Pemba (Мадагаскар) (515 км)
Погода в Ile Juan De Nova (Реюньон) (543 км)
Погода в Sambava (Мадагаскар) (554 км)

Пояснения к столбцам:

Ветер - указаны скорость ветра в м/с - средняя за 10 мин, порывы в срок и между сроками (в фигурных скобках) и направление, откуда дует ветер: С - северный, СВ - северо-восточный, В - восточный, ЮВ - юго-восточный, Ю - южный, ЮЗ - юго-западный, З - западный, СЗ - северо-западный.
Видимость - горизонтальная дальность видимости в метрах или километрах. При видимости от 1 до 10 км при отсутствии осадков обычно наблюдается дымка, при ухудшении видимости до 1 км и менее - туман. В сухую погоду видимость может ухудшаться дымом, пылью или мглою.
Явления - указаны атмосферные явления, наблюдавшиеся в срок или в последний час перед сроком; фигурными скобками обозначены явления, наблюдавшиеся между сроками (за 1-3 часа до срока); квадратными скобками обозначены град или гололедные отложения с указанием их диаметра в мм.
Облачность - указаны через наклонную черту общая и нижняя облачность в баллах и высота нижней границы облаков в метрах; квадратными скобками обозначены формы облаков: Ci - перистые, Cs - перисто-слоистые, Cc - перисто-кучевые, Ac - высококучевые, As - высокослоистые, Sc - слоисто-кучевые, Ns - слоисто-дождевые, Cu - кучевые, Cb - кучево-дождевые. Подробнее классификацию облаков см. в Атласе облаков (PDF).
T - Температура воздуха - температура, измеренная на высоте 2 м над землей.
Td - Температура точки росы - температура, при понижении до которой содержащийся в воздухе водяной пар достигнет насыщения.
f - Относительная влажность воздуха - влажноcть воздуха, измеренная на высоте 2 м над землей.
Te - Эффективная температура - температура, которую ощущает одетый по сезону человек в тени. Характеристика душности погоды. При расчете учитывается влияние влажности воздуха и скорости ветра на теплоощущения человека.
Tes - Эффективная температура на солнце - температура, которую ощущает человек, с поправкой на солнечный нагрев. Характеристика знойности погоды. Зависит от высоты солнца над горизонтом, облачности и скорости ветра. Ночью, в пасмурную погоду, а также при ветре 12 м/с и более поправка равна нулю.
P - Атмосферное давление - приведенное к уровню моря атмосферное давление.
Po - Атмосферное давление - измеренное на уровне метеостанции атмосферное давление.
Tmin - Минимальная температура - минимум температуры воздуха на высоте 2 м над землей.
Tmax - Максимальная температура - максимум температуры воздуха на высоте 2 м над землей.
R - Количество осадков - Количество выпавших осадков за период времени, мм. При наведении курсора мыши на число - период времени, за который выпало указанное количество осадков.
R24 - Количество осадков - Количество выпавших осадков за 24 часа, мм.
S - Снежный покров - Высота снежного покрова, см. При наведении курсора мыши на число - состояние снежного покрова и степень покрытия местности в баллах.